Погода в Каратузском

Россия / Красноярский край     53°35′41″N   92°52′34″E
темп.,
°C
ветер,
м/с
пор.,
м/с
влажн.,
%
обл.,
%
осадки,
мм/ч
давл.,
гПа
погр.,
м
11 апреля, вс
вс1101:00−4зсз11969 0.0 103918
04:00−5ссз11968 0.0 104019
07:00−4ссв01897 0.0 1042113
10:00+1з11668 0.0 1042674
13:00+5сз11566 0.0 10411034
16:00+5сз1155100 0.0 10391079
19:00+2с1181100 0.0 103913
22:00−1св1188100 0.0 103910
12 апреля, пн
пн1201:00−2вюв119195 0.0 103810
04:00−2юв119256 0.0 103711
07:00−1юв1185100 0.0 103778
10:00+4ююв126691 0.0 1035387
13:00+8з1356100 0.0 1033736
16:00+7ссз1267100 0.0 1032632
19:00+4вюв2489100 0.4 1031108
22:00+3юв3895100 0.4 1029212
13 апреля, вт
вт1301:00+3вюв1197100 0.4 102729
04:00+2юв1195100 0.0 102510
07:00+2ссз1294100 0.0 102649
10:00+4сз2691100 0.3 1028516
13:00+3ссз3797100 1.5 1028375
16:00+5сз3759100 0.3 10271571
19:00+4з127396 0.3 102858
22:00+2з3679100 0.1 1031464
14 апреля, ср
ср1401:00+1юз3694100 0.3 1031242
04:000зюз41094100 0.4 1031538
07:00+1зюз51188100 0.8 1030854
10:00+2з51192100 0.6 1030928
13:00+4зюз71481100 1.1 10271339
16:00+4з41091100 1.3 1026813
19:00+3з41196100 3.8 1026763
22:00+3з31095100 1.6 1026619
15 апреля, чт
чт1501:00+3зюз2989100 2.6 1025486
04:00+3зюз31084100 0.1 1024499
07:00+4зюз41080100 0.1 1023748
10:00+2зюз41297100 1.1 1023595
13:00+5юз2792100 2.7 1022864
16:00+4ююв2797100 3.2 1022798
19:00+3вюв2499100 4.4 1022145
22:00+3юв2399100 0.5 1022102